Total_Precipitation_Accumulation
1.78 1.97 1.48 1.47 2.12 2.41 3.87 3.36 3.83 1.93 0.95 1.07 1.14 0.83 0.93 0.85 0.55 0.28 0.17 0.21 0.35 0.34 0.50 0.03 0.04 0.07 0.08 0.12 0.35 0.72 1.32 0.58 0.09 0.11 0.13 0.10 0.09 0.05 0.05 0.11 0.14 0.27 0.30 0.29 0.34
2.15 1.75 1.31 1.18 1.70 2.32 4.30 3.17 3.27 2.88 1.30 1.38 1.40 0.96 0.79 0.72 0.49 0.34 0.08 0.22 0.35 0.52 0.36 0.09 0.07 0.12 0.16 0.14 0.50 0.95 1.21 0.59 0.14 0.19 0.17 0.16 0.14 0.08 0.12 0.32 0.38 0.51 0.63 0.38 0.36
1.71 1.35 1.10 1.28 2.08 3.30 4.56 3.08 2.97 2.60 1.67 0.90 1.07 1.25 0.82 0.61 0.42 0.17 0.04 0.08 0.42 0.69 0.48 0.30 0.25 0.32 0.26 0.18 0.33 0.80 0.78 0.26 0.19 0.27 0.29 0.22 0.15 0.18 0.21 0.46 0.32 0.40 0.59 0.73 0.73
1.73 1.67 1.37 1.55 2.88 5.05 3.90 2.02 2.33 2.05 1.62 0.83 0.81 1.41 1.12 0.60 0.41 0.09 0.03 0.08 0.46 0.88 0.64 0.50 0.39 0.40 0.22 0.11 0.09 0.40 0.38 0.30 0.38 0.59 0.50 0.23 0.33 0.33 0.38 0.40 0.35 0.53 0.91 1.00 0.92
1.99 2.02 1.66 1.43 2.95 3.61 1.95 1.38 1.84 2.11 1.55 0.85 0.82 1.32 0.99 0.54 0.16 0.13 0.12 0.21 0.62 0.98 0.56 0.56 0.49 0.38 0.21 0.05 0.08 0.12 0.22 0.28 0.60 0.76 0.52 0.31 0.34 0.62 0.51 0.50 0.52 0.83 1.01 0.93 0.92
1.60 1.36 1.44 1.63 1.72 1.36 1.04 1.24 1.70 2.13 1.26 0.81 0.93 1.01 0.67 0.30 0.04 0.03 0.15 0.36 0.53 1.00 0.69 0.65 0.65 0.38 0.27 0.11 0.12 0.04 0.11 0.26 0.90 0.93 0.59 0.55 0.33 0.80 0.74 0.63 0.95 1.09 1.32 1.55 1.17
1.69 1.29 1.17 1.05 0.97 0.83 0.95 1.43 1.59 1.25 0.72 0.61 0.90 0.70 0.50 0.17 0.04 0.08 0.13 0.29 0.42 0.98 0.77 0.67 1.16 0.84 0.51 0.29 0.12 0.11 0.23 0.43 0.93 1.08 1.06 0.79 0.53 0.50 0.56 0.84 1.62 1.58 1.81 2.05 2.14
1.18 0.95 0.86 0.88 1.20 1.41 1.44 1.45 1.06 0.93 0.63 0.60 0.93 0.88 0.32 0.02 0.04 0.02 0.11 0.31 0.44 0.79 1.09 1.04 1.85 1.10 0.74 0.36 0.42 0.49 0.51 0.52 0.50 0.95 1.32 1.47 0.78 0.18 0.27 0.45 1.40 2.10 2.73 3.15 3.20
0.91 0.77 0.86 1.04 1.23 1.44 1.81 1.20 0.97 0.80 0.68 0.90 0.91 0.69 0.22 0.06 0.07 0.02 0.12 0.38 0.42 0.73 1.21 1.63 2.50 1.58 1.05 0.72 0.77 0.68 0.36 0.23 0.49 0.59 1.15 1.29 0.92 0.48 0.50 0.47 0.63 1.12 1.66 2.51 3.10
1.04 1.18 1.28 1.26 1.67 1.87 1.41 1.18 0.94 0.92 0.92 1.13 1.13 0.76 0.21 0.07 0.12 0.08 0.15 0.45 0.58 0.96 1.95 2.64 3.78 1.98 1.10 0.84 0.54 0.32 0.24 0.18 0.43 0.61 0.88 0.98 0.96 0.58 0.77 1.01 0.91 0.89 1.06 1.43 2.24
0.93 1.26 1.86 2.81 2.56 1.59 1.45 1.83 1.43 1.31 1.06 0.73 0.47 0.25 0.23 0.19 0.32 0.31 0.24 0.58 1.05 1.65 2.25 2.14 3.44 1.55 0.66 0.29 0.17 0.27 0.15 0.14 0.24 0.39 0.55 0.65 0.84 0.67 0.71 0.86 1.21 1.25 0.80 0.99 1.50
0.92 1.00 1.45 2.56 1.92 1.58 1.63 1.41 0.70 0.64 0.74 0.30 0.21 0.12 0.11 0.29 0.56 0.59 0.33 1.02 1.40 1.84 2.34 2.25 1.72 0.65 0.56 0.41 0.21 0.47 0.28 0.26 0.42 0.42 0.34 0.41 0.67 0.66 0.48 0.46 0.77 1.39 1.64 1.65 1.74
0.94 0.98 1.26 1.72 1.46 1.55 1.43 0.91 0.37 0.72 1.23 0.68 0.46 0.33 0.26 0.44 0.60 0.64 0.51 1.15 1.48 1.87 2.19 1.80 1.26 0.79 0.89 0.54 0.33 0.29 0.18 0.29 0.62 0.61 0.35 0.19 0.33 0.47 0.38 0.22 0.42 1.17 1.96 2.71 3.16
0.88 1.03 1.34 1.34 1.51 1.50 1.56 0.99 0.86 1.37 2.03 1.07 0.81 0.77 0.67 0.88 1.00 0.67 0.64 1.46 1.85 1.76 1.78 1.81 1.16 1.09 1.15 0.60 0.24 0.16 0.15 0.56 0.50 0.59 0.51 0.26 0.28 0.27 0.31 0.24 0.14 0.28 0.85 2.15 2.80
0.89 1.18 1.77 1.58 1.69 1.44 1.60 1.27 1.52 1.92 1.91 0.74 0.91 1.02 0.87 1.04 0.86 1.06 0.69 1.50 1.50 1.72 2.08 1.74 1.27 1.56 1.20 0.61 0.23 0.19 0.19 0.45 0.62 0.79 0.83 0.32 0.60 0.30 0.24 0.31 0.21 0.09 0.24 0.46 1.03
1.14 1.26 1.85 1.48 1.49 1.01 1.13 1.81 2.20 2.24 1.64 1.56 1.28 1.40 0.99 0.67 0.75 0.78 0.98 1.34 1.38 2.26 1.83 1.29 1.55 1.48 0.84 0.69 0.35 0.31 0.44 0.68 0.97 1.15 1.34 0.68 0.74 0.55 0.40 0.51 0.38 0.17 0.15 0.35 0.60
1.38 1.35 1.80 1.23 1.38 0.98 1.23 2.16 2.29 1.24 0.98 1.37 1.70 1.33 0.60 0.53 0.55 0.94 1.37 1.01 1.53 2.09 2.36 1.95 1.66 1.17 0.84 1.13 1.01 1.32 1.59 2.04 1.85 1.69 0.98 0.57 0.75 0.71 0.65 0.39 0.51 0.40 0.34 0.61 0.98
1.27 1.73 1.55 1.09 0.98 1.56 1.42 1.64 1.42 0.75 0.98 0.73 0.89 0.68 0.75 0.55 0.80 0.77 1.13 0.67 0.73 1.05 1.42 1.72 1.98 1.43 1.10 1.31 1.86 1.40 1.20 1.42 0.93 0.61 0.38 0.25 0.53 0.84 0.64 0.45 0.46 0.44 0.90 1.27 1.64
1.84 1.81 1.86 1.37 1.20 1.68 1.78 1.39 1.22 1.05 1.00 0.88 0.64 0.55 0.72 0.34 0.55 0.63 0.63 0.40 0.48 0.64 1.00 0.88 1.09 0.69 0.65 0.67 1.08 1.06 1.01 0.72 0.88 0.35 0.46 0.44 0.45 0.53 0.53 0.59 0.84 1.10 1.58 1.39 1.30
2.40 2.08 2.10 1.24 1.23 1.78 1.96 1.18 1.15 1.17 0.65 0.30 0.40 0.22 0.15 0.21 0.37 0.41 0.37 0.14 0.28 0.25 0.45 0.78 1.08 0.82 0.74 0.84 0.91 0.63 0.40 0.66 1.46 0.91 0.45 0.30 0.37 0.84 0.87 1.22 1.41 1.69 1.41 1.25 1.36
2.17 2.45 2.01 1.43 1.67 2.15 1.58 0.94 0.85 0.64 0.39 0.22 0.11 0.13 0.13 0.13 0.34 0.29 0.28 0.11 0.15 0.13 0.51 1.36 1.44 1.15 1.17 1.12 0.81 0.66 0.67 0.58 0.68 0.36 0.29 0.18 0.64 0.90 1.28 1.29 1.10 0.97 0.91 0.68 0.38
1.88 2.26 1.58 2.03 2.35 1.53 0.81 0.90 0.92 0.53 0.21 0.18 0.11 0.16 0.15 0.14 0.30 0.23 0.19 0.14 0.09 0.11 0.50 1.07 1.76 1.46 0.84 0.27 0.22 0.35 0.34 0.28 1.05 0.61 0.48 0.42 0.57 0.26 0.30 0.40 0.34 0.19 0.09 0.05 0.04
1.91 1.88 2.47 1.42 1.24 0.76 0.69 0.85 0.59 0.19 0.19 0.21 0.06 0.06 0.12 0.17 0.36 0.19 0.14 0.06 0.05 0.10 0.63 1.04 2.17 1.83 1.25 0.91 0.79 1.13 0.87 0.85 1.34 2.19 1.36 0.98 0.54 0.07 0.11 0.15 0.07 0.06 0.10 0.12 0.13
1.45 1.89 3.29 2.08 0.55 0.57 1.01 1.13 0.79 0.25 0.19 0.25 0.13 0.09 0.13 0.14 0.25 0.39 0.21 0.17 0.14 0.20 0.55 1.59 1.71 1.45 1.38 1.12 1.35 1.37 0.98 1.13 2.41 3.97 1.47 0.75 0.36 0.22 0.20 0.23 0.14 0.14 0.23 0.34 0.33
0.86 0.68 0.84 0.89 0.43 0.24 0.68 0.85 0.85 0.68 0.44 0.27 0.17 0.15 0.24 0.31 0.24 0.21 0.17 0.14 0.09 0.12 0.49 1.65 2.11 1.58 1.01 0.54 1.20 1.05 0.69 0.69 1.89 2.03 2.26 1.16 0.51 0.52 0.52 0.47 0.50 0.47 0.47 0.42 0.43
0.59 0.40 0.19 0.08 0.06 0.07 0.39 0.86 0.92 0.79 0.62 0.33 0.17 0.10 0.10 0.21 0.28 0.33 0.30 0.31 0.35 0.23 0.49 1.25 2.06 1.42 0.96 0.29 0.51 0.75 0.60 0.54 0.55 0.79 1.19 0.85 0.89 0.72 0.55 0.47 0.63 0.54 0.62 0.57 0.54
0.66 0.40 0.24 0.22 0.12 0.11 0.13 0.45 0.70 0.73 0.57 0.33 0.27 0.26 0.09 0.07 0.14 0.16 0.22 0.28 0.33 0.29 0.60 1.30 1.47 1.96 1.82 0.51 0.59 1.12 0.53 0.31 0.33 0.42 0.62 0.74 0.58 0.38 0.42 0.68 0.78 0.80 0.79 0.60 0.59